Location: Cheching
(60.0667°N, 164.2167°W)
Time: 01:07:11
(UTC+00:00)

Gurwin Techsat 1B - Visible Passes

Search period start: 24 January 2021 00:00
Search period end: 03 February 2021 00:00
Orbit: 811 x 814 km, 98.8° (Epoch: 23 January)

Date Brightness Start Highest point End Pass type
(mag) Time Alt. Az. Time Alt. Az. Time Alt. Az.
24 Jan 11.1 13:32:42 10° NNE 13:33:40 16° NNE 13:33:40 16° NNE visible
24 Jan 10.5 15:13:03 10° N 15:14:52 19° N 15:14:52 19° N visible
24 Jan 10.6 16:54:10 10° N 16:56:03 12° NNW 16:56:05 12° NNW visible
25 Jan 11.3 13:09:49 10° NNE 13:10:34 14° NNE 13:10:34 14° NNE visible
25 Jan 10.6 14:50:01 10° N 14:51:47 20° N 14:51:47 20° N visible
25 Jan 10.5 16:30:52 10° N 16:32:59 14° NNW 16:32:59 14° NNW visible
26 Jan 11.4 12:46:59 10° NNE 12:47:28 12° NNE 12:47:28 12° NNE visible
26 Jan 10.7 14:27:02 10° NNE 14:28:40 20° N 14:28:40 20° N visible
26 Jan 10.5 16:07:42 10° N 16:09:53 16° NNW 16:09:53 16° NNW visible
27 Jan 11.6 12:24:14 10° NNE 12:24:22 11° NNE 12:24:22 11° NNE visible
27 Jan 10.8 14:04:04 10° NNE 14:05:35 20° NNE 14:05:35 20° NNE visible
27 Jan 10.4 15:44:36 10° N 15:46:47 18° NNW 15:46:47 18° NNW visible
28 Jan 10.9 13:41:07 10° NNE 13:42:29 18° NNE 13:42:29 18° NNE visible
28 Jan 10.4 15:21:32 10° N 15:23:42 20° NNW 15:23:42 20° NNW visible
28 Jan 10.6 17:02:47 10° N 17:04:18 11° NNW 17:04:54 11° NNW visible
29 Jan 11.1 13:18:13 10° NNE 13:19:24 17° NNE 13:19:24 17° NNE visible
29 Jan 10.4 14:58:29 10° N 15:00:36 22° N 15:00:36 22° N visible
29 Jan 10.5 16:39:24 10° N 16:41:48 13° NNW 16:41:48 13° NNW visible
30 Jan 11.2 12:55:23 10° NNE 12:56:18 15° NNE 12:56:18 15° NNE visible
30 Jan 10.5 14:35:29 10° NNE 14:37:30 22° N 14:37:30 22° N visible
30 Jan 10.4 16:16:13 10° N 16:18:43 16° NNW 16:18:43 16° NNW visible
31 Jan 11.4 12:32:35 10° NNE 12:33:13 13° NNE 12:33:13 13° NNE visible
31 Jan 10.6 14:12:30 10° NNE 14:14:25 23° N 14:14:25 23° N visible
31 Jan 10.4 15:53:05 10° N 15:55:38 18° NNW 15:55:38 18° NNW visible
01 Feb 11.5 12:09:55 10° NNE 12:10:07 11° NE 12:10:07 11° NE visible
01 Feb 10.7 13:49:33 10° NNE 13:51:20 22° NNE 13:51:20 22° NNE visible
01 Feb 10.3 15:30:01 10° N 15:32:33 21° NNW 15:32:33 21° NNW visible
01 Feb 10.7 17:11:31 10° NNW 17:12:33 11° NNW 17:13:36 10° NW visible
02 Feb 10.9 13:26:38 10° NNE 13:28:14 20° NNE 13:28:14 20° NNE visible
02 Feb 10.2 15:06:57 10° N 15:09:27 23° NNW 15:09:27 23° NNW visible
02 Feb 10.6 16:47:58 10° N 16:50:07 12° NNW 16:50:40 12° NW visible
